Location: Staunton
(38.1490°N, 79.0720°W)
Time: 14:47:54
(UTC-04:00)

ISS - Pass Details

Date: 22 July 2017
Orbit: 400 x 408 km, 51.6° (Epoch: 21 July)

Event Time Altitude Azimuth Distance (km) Brightness Sun altitude
Rises 22:46:52 0° 244° (WSW) 2,298 0.2 -21.3°
Reaches altitude 10° 22:48:59 10° 251° (WSW) 1,443 -0.8 -21.5°
Maximum altitude 22:52:06 43° 325° (NW) 568 -2.7 -21.9°
Drops below altitude 10° 22:55:13 10° 39° (NE) 1,450 -0.9 -22.3°
Sets 22:57:22 0° 46° (NE) 2,311 0.1 -22.5°
